Change the Weather History Date:

Tuesday, May 8, 2012

  Actual Average Record
Temperature  
Mean Temperature 63 °F 65 °F  
Max Temperature 73 °F 76 °F 91 °F (1952)
Min Temperature 52 °F 54 °F 35 °F (1976)
Degree Days  
Heating Degree Days 2 3  
Month to date heating degree days 3 28  
Since 1 July heating degree days 3281 4031  
Cooling Degree Days 0 3  
Month to date cooling degree days 64 20  
Year to date cooling degree days 200 74  
Growing Degree Days 12 (Base 50)    
Moisture  
Dew Point 50 °F    
Average Humidity 66    
Maximum Humidity 93    
Minimum Humidity 38    
Precipitation  
Precipitation 0.00 in 0.19 in 2.66 in (1961)
Month to date precipitation 1.57 1.55  
Year to date precipitation 16.86 13.79  
Snow  
Snow 0.00 in - - ()
Month to date snowfall 0.0  
Snow Depth 0.00 in    
Sea Level Pressure  
Sea Level Pressure 30.04 in    
Wind  
Wind Speed 4 mph (North)    
Max Wind Speed 13 mph    
Max Gust Speed 16 mph    
Visibility 10 miles    
Events      
T = Trace of Precipitation, MM = Missing Value Source: NWS Daily Summary

Daily Weather History Graph

Daily Weather History Graph

Search for Another Location

Airport or City:

Trip Planner

Search our weather history database for the weather conditions in past years. The results will help you decide how hot, cold, wet, or windy it might be!

Date:

Astronomy

May. 08, 2012 Rise Set
Actual Time 6:15 AM CDT 8:13 PM CDT
Civil Twilight 5:46 AM CDT 8:42 PM CDT
Nautical Twilight 5:12 AM CDT 9:17 PM CDT
Astronomical Twilight 4:34 AM CDT 9:54 PM CDT
Moon 11:23 PM CDT (5/8) 8:26 AM CDT (5/8)
Length of Visible Light 14h 55m
Length of Day
13h 58m
Waning Gibbous, 90% of the Moon is Illuminated
May 8
Waning Gibbous
May 12
Last Quarter
May 20
New
May 28
First Quarter
Jun 4
Full

Hourly Weather History & Observations

Time (CDT) Temp. Dew Point Humidity Pressure Visibility Wind Dir Wind Speed Gust Speed Precip Events Conditions
12:53 AM 55.0 °F 52.0 °F 89% 30.03 in 10.0 mi Calm Calm - N/A   Clear
1:53 AM 55.0 °F 52.0 °F 89% 30.02 in 10.0 mi Calm Calm - N/A   Clear
2:53 AM 55.9 °F 54.0 °F 93% 30.03 in 10.0 mi Calm Calm - N/A   Overcast
3:53 AM 55.0 °F 54.0 °F 96% 30.04 in 10.0 mi NNW 3.5 mph - N/A   Overcast
4:53 AM 54.0 °F 52.0 °F 93% 30.05 in 10.0 mi NNW 3.5 mph - N/A   Clear
5:53 AM 53.1 °F 50.0 °F 89% 30.05 in 10.0 mi North 5.8 mph - N/A   Clear
6:53 AM 54.0 °F 48.9 °F 83% 30.05 in 10.0 mi North 5.8 mph - N/A   Partly Cloudy
7:53 AM 57.9 °F 50.0 °F 75% 30.06 in 10.0 mi NNE 5.8 mph - N/A   Clear
8:53 AM 61.0 °F 52.0 °F 72% 30.05 in 10.0 mi NE 5.8 mph - N/A   Clear
9:53 AM 64.9 °F 50.0 °F 58% 30.05 in 10.0 mi NE 8.1 mph - N/A   Clear
10:53 AM 66.9 °F 46.0 °F 47% 30.09 in 10.0 mi Calm Calm - N/A   Clear
11:53 AM 68.0 °F 46.9 °F 47% 30.10 in 10.0 mi Variable 5.8 mph - N/A   Clear
12:53 PM 70.0 °F 45.0 °F 41% 30.08 in 10.0 mi ENE 3.5 mph - N/A   Clear
1:53 PM 72.0 °F 45.0 °F 38% 30.06 in 10.0 mi Variable 4.6 mph - N/A   Clear
2:53 PM 71.1 °F 46.0 °F 41% 30.04 in 10.0 mi NNW 9.2 mph - N/A   Clear
3:53 PM 72.0 °F 46.9 °F 41% 30.01 in 10.0 mi North 6.9 mph - N/A   Clear
4:53 PM 71.1 °F 48.0 °F 44% 30.00 in 10.0 mi Variable 3.5 mph - N/A   Clear
5:53 PM 70.0 °F 48.0 °F 46% 30.00 in 10.0 mi North 6.9 mph - N/A   Clear
6:53 PM 70.0 °F 48.9 °F 47% 29.99 in 10.0 mi North 4.6 mph - N/A   Clear
7:53 PM 66.0 °F 54.0 °F 65% 30.00 in 10.0 mi Calm Calm - N/A   Clear
8:53 PM 61.0 °F 51.1 °F 70% 30.01 in 10.0 mi South 3.5 mph - N/A   Clear
9:53 PM 60.1 °F 51.1 °F 72% 30.01 in 10.0 mi Calm Calm - N/A   Clear
10:53 PM 59.0 °F 51.1 °F 75% 30.02 in 10.0 mi South 3.5 mph - N/A   Overcast
11:53 PM 59.0 °F 53.1 °F 81% 30.04 in 10.0 mi SSW 4.6 mph - N/A   Overcast